Regional Weather Roundup
Issued by NWS Wilmington, NC

Home | Current Version | Previous Version | Text Only | Print | Product List | Glossary On
Versions: 1 2 3 4 5 6 7 8 9 10 11 12 13 14 15 16 17 18 19 20 21 22 23 24 25 26 27 28 29 30 31 32 33 34 35 36 37 38 39 40 41 42 43 44 45 46 47 48 49 50
000
ASUS42 KILM 291513
RWRILM
RWRILM
REGIONAL HOURLY WEATHER ROUNDUP
NATIONAL WEATHER SERVICE WILMINGTON NC
1100 AM EDT THU SEP 29 2016

NOTE: "FAIR" INDICATES FEW OR NO CLOUDS BELOW 12,000 FEET WITH NO
SIGNIFICANT WEATHER AND/OR OBSTRUCTIONS TO VISIBILITY.

...............WFO WILMINGTON COUNTY WARNING AREA...............

......COASTAL NC AND SC COUNTIES......

CITY           SKY/WX    TMP DP  RH WIND       PRES   REMARKS
WILMINGTON     CLOUDY    73  68  84 N9        30.02R
N MYRTLE BEACH CLOUDY    82  72  71 S15       29.98R
MYRTLE BEACH   LGT RAIN  77  66  69 SW8       30.00R

......INLAND NC AND SC COUNTIES.......

CITY           SKY/WX    TMP DP  RH WIND       PRES   REMARKS
LUMBERTON      CLOUDY    70  68  93 E10       30.01R
ELIZABETHTOWN  LGT RAIN  67  67 100 CALM      30.03S
WHITEVILLE     CLOUDY    69  67  96 N3        30.02S
FLORENCE       CLOUDY    76  70  82 E10       29.98S
DARLINGTON     MOSUNNY   76  71  85 E10       29.99R
KINGSTREE      PTSUNNY   81  72  74 SW5       29.97R
HARTSVILLE     CLOUDY    72  70  94 E8        29.98R
BENNETTSVILLE  CLOUDY    77  70  78 E9        29.99R
CONWAY         PTSUNNY   81  73  78 S6        29.97R
GEORGETOWN     PTSUNNY   81  73  78 S10       29.98S
MARION         CLOUDY    72  68  88 NE14      30.00R

....................REST OF NORTH CAROLINA......................

.........EASTERN NC.........

CITY           SKY/WX    TMP DP  RH WIND       PRES   REMARKS
CAPE HATTERAS  PTSUNNY   83  73  72 VRB3      30.03S
JACKSONVILLE   PTSUNNY   71  69  93 N7        30.04S
MOREHEAD CITY  CLOUDY    81  75  82 E6        30.01F
KENANSVILLE    RAIN      66  66 100 N5        30.05R FOG
NEW BERN       CLOUDY    80  73  79 E6        30.04R
ELIZABETH CITY CLOUDY    80  74  81 N5        30.05F

.........CENTRAL NC.........

CITY           SKY/WX    TMP DP  RH WIND       PRES   REMARKS
RALEIGH DURHAM CLOUDY    70  67  90 CALM      30.05S
ROCKY MOUNT    LGT RAIN  69  67  93 VRB7      30.02R
ROANOKE RAPIDS NOT AVBL
FAYETTEVILLE   PTSUNNY   71  68  90 E10       30.01S
HOFFMAN        PTSUNNY   71  67  87 E13G20    30.00S

.........WESTERN NC.........

CITY           SKY/WX    TMP DP  RH WIND       PRES   REMARKS
CHARLOTTE      PTSUNNY   72  67  84 E9        30.00R
GREENSBORO     PTSUNNY   73  66  78 SE12      30.02S
HICKORY        NOT AVBL
BOONE          NOT AVBL
ASHEVILLE      NOT AVBL

.....................REST OF SOUTH CAROLINA.....................

.........EASTERN SC.........

CITY           SKY/WX    TMP DP  RH WIND       PRES   REMARKS
CHARLESTON     MOSUNNY   83  73  72 S7        29.97F
BEAUFORT MCAS  MOSUNNY   82  72  71 SW6       29.99R
HILTON HEAD    MOSUNNY   86  72  62 SW7       30.00F HX  92

.........CENTRAL SC.........

CITY           SKY/WX    TMP DP  RH WIND       PRES   REMARKS
COLUMBIA       MOSUNNY   80  66  62 SE3       29.95S
ORANGEBURG     PTSUNNY   78  69  73 SW3       29.98R
SUMTER SHAW    PTSUNNY   81  67  63 W5        29.94S

.........WESTERN SC.........

CITY           SKY/WX    TMP DP  RH WIND       PRES   REMARKS
GREENVILLE     NOT AVBL
ROCK HILL      MOSUNNY   75  66  73 VRB6      29.99R
ANDERSON       SUNNY     74  55  51 VRB3      29.98R
CLEMSON        NOT AVBL
GREENWOOD      SUNNY     74  57  55 S3        29.99R


...................COASTAL AND OFFSHORE REPORTS..................

................LOCAL PIERS AND NC RESERVE................


STATION/POSITION TIME  SKY/WX   TEMP    WIND        PRES    VSBY
                                AIR SEA DIR/SP/G
                 (UTC)          (F)     (DEG/KT/KT) (MB)    (MI)
JOHNY MRCER PIER 1442            74 82  350/  8/ 12 1015.2R
NC RESRV MASNBRO 1345            80     220/  5     1014.0
OCEAN CREST PIER NOT AVBL
SPRINGMAID  PIER 1442            79 81  170/ 18/ 21 1014.7R


................COASTAL AND OFFSHORE BUOYS................


STATION/POSITION TIME  SKY/WX   TEMP    WIND        PRES    VSBY
                                AIR SEA DIR/SP/G
                 (UTC)          (F)     (DEG/KT/KT) (MB)    (MI)
DIMNDSHOAL 41025 1450            79 83   20/  8/ 10 1016.7R
WVE H/P(F/S)=  3/11 SWL H/P/D(F/S/D)=  3/110/11

CAPE LOOKOUT     1400            79      80/  6/  6 1016.2R
ONSLOW BAY 41036 NOT AVBL
ONSLOW BAY 41064 1408            82 83  170/  8/ 14 1016.1R
ONSLOW BAY 41159 1455               83                N/A
WVE H/P(F/S)=  3/ 8 SWL H/P/D(F/S/D)=  2/110/11

5SE WRITBC 41038 1408            81 80  190/ 12/ 17 1016.7R
MASNBO INL 41110 1359               80                N/A
WVE H/P(F/S)=  3/10

WILM HARBR 41108 1356               81                N/A
WVE H/P(F/S)=  3/ 4 SWL H/P/D(F/S/D)=  2/130/11

27SE WRITB 41037 1408            80 81  180/ 10/ 14 1016.0R
FRYING PAN 41013 1450            81 82  160/ 14/ 17 1015.5S
WVE H/P(F/S)=  3/ 4 SWL H/P/D(F/S/D)=  2/100/ 8

SUNST NRSH 41024 1408            80 81  190/ 19/ 27 1014.9R
CAPRS NRSH 41029 1408            80 81  230/ 10/ 14 1015.2R
EDISTO     41004 1450            78 82  140/ 16/ 17 1015.4R
WVE H/P(F/S)=  3/ 5 SWL H/P/D(F/S/D)=  2/110/11



..........OFFSHORE BUOYS BEYOND 100 NM OFFSHORE...........
.....IN A TRIANGLE---HAT TO BERMUDA TO BAHAMAS TO HAT.....


STATION/POSITION TIME  SKY/WX   TEMP    WIND        PRES    VSBY
                                AIR SEA DIR/SP/G
                 (UTC)          (F)     (DEG/KT/KT) (MB)    (MI)
150E HAT   41001 NOT AVBL
W BERMUDA  41048 1450            81 83  140/ 10/ 12 1020.7F
WVE H/P(F/S)=  4/ 7 SWL H/P/D(F/S/D)=  3/ 90/ 7

ATLANTIC S 41049 1450            83 84   90/  6/  8 1023.3F
WVE H/P(F/S)=  4/ 8 SWL H/P/D(F/S/D)=  3/ 60/ 8

E BAHAMAS  41046 1450            86 86  100/ 12/ 17 1020.0R
WVE H/P(F/S)=  5/ 7 SWL H/P/D(F/S/D)=  3/120/ 7

NE BAHAMAS 41047 1450            84 85  140/ 16/ 17 1019.9R
WVE H/P(F/S)=  3/10 SWL H/P/D(F/S/D)=  3/110/10

120E CANVRL41010 NOT AVBL

END



USA.gov is the U.S. government's official web portal to all federal, state and local government web resources and services.